Content
SEND FEEDBACK

Daily
Averages
Monthly
Summary
United States of America

ASHEVILLE, NORTH CAROLINA


Home > North America > United States > North Carolina
Elevation: 2240 feet     Latitude: 35 36N     Longitude: 082 32W

WEATHER
 
SELECT A DAY
Number of Records: 230,393;   Date Range: 1/1/95 - 11/25/14
 
SHARE

PRINT THIS DATA

[ ← Previous Day ]
WEATHER ALMANAC - MAY 5, 2013
[ Next Day → ]
[ °C ]   °F
Weather ElementAverageHighLow
Temperature48.5 °F51.8 °F (4:22 pm)46 °F (8:54 am)
Dewpoint46.8 °F48.9 °F (11:54 pm)44.1 °F (8:54 am)
Humidity94 %100 % (6:34 pm)82 % (4:22 pm)
Barometer29.88 in29.93 in (1:54 am)29.82 in (5:54 pm)
Wind Speed3.9 mph11.5 mph (4:54 pm)
Wind Gust24.2 mph (4:54 pm)
Weather ElementAverage
Visibility3.6 mi
Wind DirectionE (85.4 °)

Weather ElementTotal
Precipitation7.94 in
Heating Degree Days16.1 (Base 65)
Averaged from 76 records on May 5, 2013
WEATHER CONDITIONS BREAKOUT
WIND DIRECTION BREAKOUT
WEATHER BY HOUR - MAY 5, 2013
[ °C ]   °F
Local TimeTemperatureDewpointHumidityBarometerVisibilityWind DirectionWind SpeedGust SpeedPrecipitationEventsConditions
1:54 AM50.0 °F46.9 °F89 %29.93 in10.0 miVariable5.8 mph0.14 inRainLight Rain
2:54 AM50.0 °F46.9 °F89 %29.91 in10.0 miCalm0.05 inRainLight Rain
3:54 AM50.0 °F48.0 °F93 %29.91 in3.0 miCalm0.17 inRainHeavy Rain
4:54 AM50.0 °F48.0 °F93 %29.87 in4.0 miNorth (360°)5.8 mph0.18 inRainHeavy Rain
5:54 AM50.0 °F46.0 °F86 %29.85 in10.0 miVariable4.6 mph0.06 inOvercast
6:54 AM48.0 °F45.0 °F89 %29.87 in4.0 miENE (70°)9.2 mph0.05 inRainRain
7:44 AM46.4 °F44.6 °F93 %29.91 in2.5 miVariable3.5 mph0.11 inRainHeavy Rain
7:54 AM46.9 °F46.0 °F97 %29.90 in2.5 miVariable4.6 mph0.15 inRainRain
8:06 AM46.4 °F44.6 °F93 %29.92 in3.0 miNNE (20°)3.5 mph0.04 inRainHeavy Rain
8:10 AM46.4 °F44.6 °F93 %29.91 in2.5 miCalm0.05 inRainHeavy Rain
8:19 AM46.4 °F44.6 °F93 %29.92 in2.5 miCalm0.09 inRainHeavy Rain
8:27 AM46.4 °F44.6 °F93 %29.91 in2.5 miNNW (330°)5.8 mph0.12 inRainHeavy Rain
8:54 AM46.0 °F44.1 °F93 %29.90 in3.0 miNNW (330°)6.9 mph0.23 inRainRain
9:13 AM46.4 °F44.6 °F93 %29.92 in2.5 miVariable3.5 mph0.06 inRainHeavy Rain
9:21 AM46.4 °F44.6 °F93 %29.93 in3.0 miSW (230°)4.6 mph0.08 inRainRain
9:32 AM46.4 °F44.6 °F93 %29.92 in2.5 miCalm0.12 inRainHeavy Rain
9:54 AM46.0 °F45.0 °F96 %29.91 in2.0 miWest (270°)3.5 mph0.22 inRainHeavy Rain
10:01 AM46.4 °F44.6 °F93 %29.92 in2.0 miNW (310°)4.6 mph0.03 inRainHeavy Rain
10:06 AM46.4 °F44.6 °F93 %29.92 in1.8 miWSW (250°)3.5 mph0.06 inRainHeavy Rain
10:15 AM46.4 °F44.6 °F93 %29.93 in2.0 miCalm0.10 inRainHeavy Rain
10:17 AM46.4 °F44.6 °F93 %29.93 in2.0 miCalm0.12 inRainHeavy Rain
10:32 AM46.4 °F44.6 °F93 %29.93 in2.0 miVariable3.5 mph0.19 inRainHeavy Rain
10:34 AM46.4 °F44.6 °F93 %29.93 in1.8 miCalm0.20 inRainHeavy Rain
10:54 AM46.9 °F45.0 °F93 %29.91 in2.5 miCalm0.31 inRainHeavy Rain
11:13 AM48.2 °F44.6 °F87 %29.92 in3.0 miCalm0.07 inRainRain
11:54 AM46.9 °F45.0 °F93 %29.90 in2.5 miVariable4.6 mph0.20 inRainHeavy Rain
12:04 PM48.2 °F44.6 °F87 %29.92 in3.0 miSSE (150°)4.6 mph0.04 inRainHeavy Rain
12:54 PM48.0 °F46.0 °F93 %29.90 in2.5 miVariable5.8 mph0.20 inRainRain
1:03 PM48.2 °F46.4 °F93 %29.91 in2.0 miESE (110°)3.5 mph0.04 inRainRain
1:07 PM48.2 °F46.4 °F93 %29.92 in3.0 miESE (120°)5.8 mph0.05 inRainRain
1:33 PM48.2 °F46.4 °F93 %29.89 in5.0 miCalm0.08 inRainLight Rain
1:54 PM48.2 °F46.4 °F93 %29.88 in6.0 miEast (100°)8.1 mphRainLight Rain
2:09 PM50.0 °F46.4 °F87 %29.88 in4.0 miSSE (160°)4.6 mph0.02 inRainLight Rain
2:30 PM50.0 °F48.2 °F94 %29.88 in1.8 miVariable5.8 mph0.08 inRainHeavy Rain
2:40 PM50.0 °F48.2 °F94 %29.88 in3.0 miVariable6.9 mph0.11 inRainLight Rain
2:51 PM50.0 °F48.2 °F94 %29.88 in6.0 miVariable3.5 mph0.12 inRainLight Rain
2:54 PM50.0 °F48.0 °F93 %29.86 in7.0 miVariable5.8 mph0.12 inRainLight Rain
3:16 PM48.2 °F46.4 °F93 %29.88 in3.0 miSSE (160°)8.1 mph0.03 inRainRain
3:23 PM50.0 °F46.4 °F87 %29.88 in2.0 miVariable4.6 mph0.05 inRainRain
3:31 PM50.0 °F48.2 °F94 %29.88 in3.0 miSSE (160°)9.2 mph19.6 mph0.06 inRainLight Rain
3:36 PM50.0 °F48.2 °F94 %29.88 in2.0 miSSE (150°)10.4 mph19.6 mph0.06 inRainLight Rain
3:54 PM51.1 °F48.0 °F89 %29.84 in2.0 miVariable3.5 mph0.07 inRainLight Rain
4:22 PM51.8 °F46.4 °F82 %29.85 in2.0 miVariable6.9 mph0.00 inRainLight Rain
4:40 PM51.8 °F46.4 °F82 %29.85 in3.0 miESE (120°)10.4 mph18.4 mph0.00 inOvercast
4:54 PM51.1 °F46.9 °F86 %29.83 in3.0 miESE (120°)11.5 mph24.2 mph0.00 inOvercast
5:16 PM51.8 °F46.4 °F82 %29.85 in10.0 miESE (120°)11.5 mph20.7 mph0.00 inRainLight Rain
5:54 PM50.0 °F48.0 °F93 %29.82 in2.5 miCalm0.03 inRainHeavy Rain
6:08 PM50.0 °F48.2 °F94 %29.84 in5.0 miCalm0.04 inRainLight Rain
6:20 PM50.0 °F46.4 °F87 %29.85 in5.0 miCalm0.06 inRainLight Rain
6:34 PM48.2 °F48.2 °F100 %29.85 in3.0 miWNW (290°)4.6 mph0.06 inRainRain
6:39 PM48.2 °F48.2 °F100 %29.85 in1.8 miCalm0.09 inRainHeavy Rain
6:54 PM48.9 °F48.0 °F97 %29.83 in1.5 miCalm0.17 inRainHeavy Rain
7:11 PM48.2 °F48.2 °F100 %29.85 in2.0 miSouth (180°)3.5 mph0.06 inRainHeavy Rain
7:22 PM48.2 °F48.2 °F100 %29.84 in1.8 miSouth (190°)5.8 mph0.10 inRainRain
7:24 PM48.2 °F48.2 °F100 %29.84 in2.0 miSouth (190°)5.8 mph0.11 inRainRain
7:45 PM48.2 °F48.2 °F100 %29.86 in2.0 miSouth (170°)10.4 mph0.16 inRainLight Rain
7:50 PM48.2 °F48.2 °F100 %29.85 in3.0 miSouth (170°)5.8 mph0.17 inRainLight Rain
7:54 PM48.9 °F48.0 °F97 %29.85 in3.0 miSouth (180°)9.2 mph0.18 inRainRain
8:10 PM48.2 °F48.2 °F100 %29.86 in2.5 miSSE (150°)5.8 mph0.04 inRainRain
8:16 PM48.2 °F48.2 °F100 %29.86 in1.8 miSouth (170°)6.9 mph0.08 inRainHeavy Rain
8:23 PM48.2 °F48.2 °F100 %29.86 in3.0 miSSW (200°)5.8 mph0.11 inRainRain
8:27 PM48.2 °F48.2 °F100 %29.86 in4.0 miSSW (210°)5.8 mph0.12 inRainRain
8:32 PM48.2 °F48.2 °F100 %29.85 in2.5 miSSW (210°)4.6 mph0.15 inRainHeavy Rain
8:38 PM48.2 °F48.2 °F100 %29.86 in3.0 miSSW (200°)4.6 mph0.17 inRainRain
8:54 PM48.9 °F48.0 °F97 %29.84 in2.5 miSSW (200°)5.8 mph0.28 inRainHeavy Rain
9:22 PM48.2 °F48.2 °F100 %29.85 in3.0 miCalm0.18 inRainRain
9:51 PM48.2 °F48.2 °F100 %29.85 in4.0 miCalm0.24 inRainRain
9:54 PM48.9 °F48.0 °F97 %29.83 in3.0 miCalm0.25 inRainHeavy Rain
10:12 PM48.2 °F48.2 °F100 %29.85 in3.0 miCalm0.09 inRainRain
10:35 PM48.2 °F48.2 °F100 %29.85 in3.0 miCalm0.17 inRainRain
10:44 PM48.2 °F48.2 °F100 %29.84 in4.0 miCalm0.20 inRainRain
10:54 PM48.9 °F48.0 °F97 %29.83 in8.0 miCalm0.20 inRainLight Rain
11:03 PM48.2 °F48.2 °F100 %29.84 in6.0 miCalm0.00 inRainRain
11:31 PM50.0 °F48.2 °F94 %29.84 in6.0 miCalm0.03 inRainLight Rain
11:34 PM50.0 °F48.2 °F94 %29.84 in7.0 miCalm0.03 inRainLight Rain
11:54 PM50.0 °F48.9 °F96 %29.82 in10.0 miSE (140°)3.5 mph0.04 inOvercast
Hourly data recorded from KAVL, located miles away from Asheville, North Carolina







STORIES FROM OUR PARTNERS